Weather Roundup
Issued by NWS Chicago, IL

Home | Current Version | Previous Version | Graphics & Text | Print | Product List | Glossary On
Versions: 1 2 3 4 5 6 7 8 9 10 11 12 13 14 15 16 17 18 19 20 21 22 23 24 25 26 27 28 29 30 31 32 33 34 35 36 37 38 39 40 41 42 43 44 45 46 47 48 49 50
000
NZUS59 KLOT 281508
HRRLOT

CHICAGO AREA WEATHER ROUNDUP
NATIONAL WEATHER SERVICE CHICAGO/ROMEOVILLE IL
1000 AM CDT SAT MAR 28 2015

NOTE: "FAIR" INDICATES FEW OR NO CLOUDS BELOW 12,000 FEET WITH NO
SIGNIFICANT WEATHER AND/OR OBSTRUCTIONS TO VISIBILITY.

* THESE STATIONS ARE NOT UNDER NWS QUALITY CONTROL. THEY ALSO MAY NOT
  REPORT WEATHER SUCH AS PRECIPITATION OR FOG.

ILZ005-006-012>014-019>023-281600-
NORTHEAST ILLINOIS

CITY           SKY/WX    TMP DP  RH WIND       PRES   REMARKS
OHARE          MOSUNNY   29  10  45 NE7       30.33R WCI  22
MIDWAY         MOSUNNY   30  11  45 NE6       30.34R WCI  24
AURORA         SUNNY     29  12  49 NE9       30.34R WCI  20
LANSING*       SUNNY     29  10  45 NE6       30.34R WCI  23
JOLIET*        SUNNY     31  14  49 E5        30.34S WCI  26
WAUKEGAN       SUNNY     27  13  55 E9        30.34R WCI  18
DUPAGE AIRPORT SUNNY     30  14  51 NE9       30.33R WCI  22
WHEELING       SUNNY     29  10  45 NE8       30.36R WCI  21
KANKAKEE*      SUNNY     28  15  57 NE7       30.34R WCI  21
MORRIS*        SUNNY     30  13  49 E7        30.34R WCI  23
LEWIS AIRPORT* SUNNY     30  12  47 E9        30.33R WCI  21
NORTHERLY IS     N/A     28  12  51 N7          N/A  WCI  21
$$

WIZ051-052-058>065-066-070>072-281600-
SOUTHEAST WISCONSIN

CITY           SKY/WX    TMP DP  RH WIND       PRES   REMARKS
MILWAUKEE      MOSUNNY   30  16  56 N5        30.34R WCI  25
KENOSHA*       SUNNY     29  16  58 NE5       30.34R WCI  24
RACINE*        SUNNY     29  16  58 NE6       30.36R WCI  23
BURLINGTON     SUNNY     26  15  64 CALM      30.34R
WAUKESHA       SUNNY     25  16  68 CALM      30.33R
WEST BEND      SUNNY     28  14  54 W3        30.33R
$$

INZ001>003-010>013-019-020-281600-
NORTHWEST INDIANA

CITY           SKY/WX    TMP DP  RH WIND       PRES   REMARKS
GARY*          NOT AVBL
MICHIGAN CITY* NOT AVBL
RENSSELAER*    NOT AVBL
VALPARAISO     SUNNY     26   6  42 NE7       30.33R WCI  18
$$

LMZ740>746-281600-
SOUTHERN LAKE MICHIGAN

STATION/POSITION TIME  SKY/WX   TEMP WIND        PRES    VSBY
                                AIR  DIR/SP/G
                 (UTC)          (F)  (DEG/KT/KT) (MB)    (MI)
HARRISON CRIB    1400            25   40/  8/ 10   N/A
BURNHAM HARBOR   1500            28   40/  8/ 10   N/A
CALUMET HARBOR   1400            26   20/  7/ 12 1025.6R
BURNS HARBOR     1400            23   70/  8/ 10 1027.1R
MICHIGAN CITY    1400            20   30/  6/  9   N/A
$$

ABBREVIATIONS USED IN REMARKS
   TC - TEMPERATURE IN CELSIUS
  WCI - WIND CHILL INDEX
   HX - HEAT INDEX
  VSB - VISIBILITY
$$



USA.gov is the U.S. government's official web portal to all federal, state and local government web resources and services.